Time,TemperatureF,DewpointF,PressureIn,WindDirection,WindDirectionDegrees,WindSpeedMPH,WindSpeedGustMPH,Humidity,HourlyPrecipIn,Conditions,Clouds,dailyrainin,SoftwareType,DateUTC
2013-06-16 00:02:00,67.0,63.0,29.91,South,169,0.0,2.0,88,0.00,,,0.00,,2013-06-16 04:02:00,
2013-06-16 00:12:00,67.0,63.0,29.91,South,169,0.0,2.0,88,0.00,,,0.00,,2013-06-16 04:12:00,
2013-06-16 00:23:00,67.0,63.0,29.89,SSE,155,0.0,3.0,88,0.00,,,0.00,,2013-06-16 04:23:00,
2013-06-16 00:34:00,66.0,63.0,29.89,SSE,156,0.0,2.0,89,0.00,,,0.00,,2013-06-16 04:34:00,
2013-06-16 00:42:00,66.0,63.0,29.89,SSE,156,0.0,2.0,89,0.00,,,0.00,,2013-06-16 04:42:00,
2013-06-16 00:53:00,66.0,63.0,29.88,East,94,0.0,5.0,90,0.00,,,0.00,,2013-06-16 04:53:00,
2013-06-16 01:02:00,66.0,63.0,29.88,SE,142,0.0,2.0,90,0.00,,,0.00,,2013-06-16 05:02:00,
2013-06-16 01:12:00,66.0,63.0,29.88,SE,142,0.0,2.0,90,0.00,,,0.00,,2013-06-16 05:12:00,
2013-06-16 01:22:00,66.0,63.0,29.87,SSE,157,0.0,3.0,91,0.00,,,0.00,,2013-06-16 05:22:00,
2013-06-16 01:34:00,66.0,63.0,29.87,South,170,1.0,4.0,90,0.00,,,0.00,,2013-06-16 05:34:00,
2013-06-16 01:43:00,66.0,63.0,29.87,South,170,1.0,4.0,90,0.00,,,0.00,,2013-06-16 05:43:00,
2013-06-16 01:52:00,67.0,63.0,29.87,SW,215,1.0,5.0,88,0.00,,,0.00,,2013-06-16 05:52:00,
2013-06-16 02:01:00,67.0,63.0,29.87,South,189,2.0,7.0,88,0.00,,,0.00,,2013-06-16 06:01:00,
2013-06-16 02:11:00,67.0,63.0,29.87,South,189,2.0,7.0,88,0.00,,,0.00,,2013-06-16 06:11:00,
2013-06-16 02:22:00,67.0,63.0,29.87,SW,215,1.0,5.0,88,0.00,,,0.00,,2013-06-16 06:22:00,
2013-06-16 02:33:00,67.0,64.0,29.86,SSW,205,0.0,3.0,89,0.00,,,0.00,,2013-06-16 06:33:00,
2013-06-16 02:43:00,67.0,64.0,29.86,SSW,205,0.0,3.0,89,0.00,,,0.00,,2013-06-16 06:43:00,
2013-06-16 02:52:00,67.0,64.0,29.85,SSE,161,2.0,6.0,89,0.00,,,0.00,,2013-06-16 06:52:00,
2013-06-16 03:01:00,67.0,63.0,29.84,WSW,244,1.0,6.0,88,0.00,,,0.00,,2013-06-16 07:01:00,
2013-06-16 03:12:00,67.0,63.0,29.84,WSW,244,1.0,6.0,88,0.00,,,0.00,,2013-06-16 07:12:00,
2013-06-16 03:22:00,67.0,63.0,29.84,West,260,1.0,5.0,87,0.00,,,0.00,,2013-06-16 07:22:00,
2013-06-16 03:33:00,68.0,63.0,29.85,SSW,208,4.0,10.0,85,0.00,,,0.00,,2013-06-16 07:33:00,
2013-06-16 03:43:00,68.0,63.0,29.85,SSW,208,4.0,10.0,85,0.00,,,0.00,,2013-06-16 07:43:00,
2013-06-16 03:53:00,69.0,64.0,29.84,WSW,252,3.0,10.0,84,0.00,,,0.00,,2013-06-16 07:53:00,
2013-06-16 04:02:00,69.0,64.0,29.84,SW,223,2.0,10.0,84,0.00,,,0.00,,2013-06-16 08:02:00,
2013-06-16 04:12:00,69.0,64.0,29.84,SW,223,2.0,10.0,84,0.00,,,0.00,,2013-06-16 08:12:00,
2013-06-16 04:22:00,69.0,65.0,29.85,WNW,302,2.0,10.0,86,0.00,,,0.00,,2013-06-16 08:22:00,
2013-06-16 04:33:00,69.0,65.0,29.85,NW,315,6.0,13.0,87,0.00,,,0.00,,2013-06-16 08:33:00,
2013-06-16 04:43:00,69.0,65.0,29.85,NW,315,6.0,13.0,87,0.00,,,0.00,,2013-06-16 08:43:00,
2013-06-16 04:54:00,68.0,64.0,29.84,WSW,257,3.0,9.0,88,0.00,,,0.00,,2013-06-16 08:54:00,
2013-06-16 05:02:00,69.0,66.0,29.83,WSW,244,2.0,10.0,89,0.00,,,0.00,,2013-06-16 09:02:00,
2013-06-16 05:11:00,69.0,66.0,29.83,WSW,244,2.0,10.0,89,0.00,,,0.00,,2013-06-16 09:11:00,
2013-06-16 05:22:00,68.0,65.0,29.84,WSW,250,3.0,7.0,90,0.00,,,0.00,,2013-06-16 09:22:00,
2013-06-16 05:33:00,68.0,65.0,29.85,West,260,0.0,7.0,90,0.00,,,0.00,,2013-06-16 09:33:00,
2013-06-16 05:43:00,68.0,65.0,29.85,West,260,0.0,7.0,90,0.00,,,0.00,,2013-06-16 09:43:00,
2013-06-16 05:52:00,68.0,65.0,29.85,SW,223,1.0,5.0,90,0.00,,,0.00,,2013-06-16 09:52:00,
2013-06-16 06:02:00,68.0,66.0,29.87,SW,219,1.0,6.0,92,0.00,,,0.00,,2013-06-16 10:02:00,
2013-06-16 06:12:00,68.0,66.0,29.87,SW,219,1.0,6.0,92,0.00,,,0.00,,2013-06-16 10:12:00,
2013-06-16 06:22:00,68.0,66.0,29.86,WSW,237,2.0,7.0,92,0.00,,,0.00,,2013-06-16 10:22:00,
2013-06-16 06:33:00,68.0,66.0,29.86,WSW,238,0.0,4.0,93,0.00,,,0.00,,2013-06-16 10:33:00,
2013-06-16 06:43:00,68.0,66.0,29.86,WSW,238,0.0,4.0,93,0.00,,,0.00,,2013-06-16 10:43:00,
2013-06-16 06:54:00,67.0,65.0,29.85,WSW,250,0.0,7.0,93,0.00,,,0.00,,2013-06-16 10:54:00,
2013-06-16 07:02:00,67.0,65.0,29.85,WNW,282,1.0,6.0,93,0.00,,,0.00,,2013-06-16 11:02:00,
2013-06-16 07:12:00,67.0,65.0,29.85,WNW,282,1.0,6.0,93,0.00,,,0.00,,2013-06-16 11:12:00,
2013-06-16 07:22:00,67.0,65.0,29.84,West,262,0.0,3.0,93,0.00,,,0.00,,2013-06-16 11:22:00,
2013-06-16 07:34:00,67.0,65.0,29.84,NE,34,0.0,8.0,92,0.00,,,0.00,,2013-06-16 11:34:00,
2013-06-16 07:43:00,67.0,65.0,29.84,NE,34,0.0,8.0,92,0.00,,,0.00,,2013-06-16 11:43:00,
2013-06-16 07:53:00,67.0,64.0,29.83,WSW,240,1.0,4.0,91,0.00,,,0.00,,2013-06-16 11:53:00,
2013-06-16 08:02:00,67.0,64.0,29.84,WNW,294,2.0,6.0,91,0.00,,,0.00,,2013-06-16 12:02:00,
2013-06-16 08:12:00,67.0,64.0,29.84,WNW,294,2.0,6.0,91,0.00,,,0.00,,2013-06-16 12:12:00,
2013-06-16 08:22:00,67.0,64.0,29.84,SW,231,2.0,6.0,91,0.00,,,0.00,,2013-06-16 12:22:00,
2013-06-16 08:32:00,68.0,65.0,29.85,SW,236,4.0,10.0,90,0.00,,,0.00,,2013-06-16 12:32:00,
2013-06-16 08:43:00,68.0,65.0,29.85,SW,236,4.0,10.0,90,0.00,,,0.00,,2013-06-16 12:43:00,
2013-06-16 08:53:00,68.0,65.0,29.85,WSW,243,3.0,9.0,90,0.00,,,0.00,,2013-06-16 12:53:00,
2013-06-16 09:01:00,69.0,66.0,29.86,SW,232,1.0,11.0,89,0.00,,,0.00,,2013-06-16 13:01:00,
2013-06-16 09:12:00,69.0,66.0,29.86,SW,232,1.0,11.0,89,0.00,,,0.00,,2013-06-16 13:12:00,
2013-06-16 09:22:00,68.0,65.0,29.86,West,262,4.0,10.0,89,0.00,,,0.00,,2013-06-16 13:22:00,
2013-06-16 09:34:00,68.0,66.0,29.86,SSW,212,2.0,8.0,92,0.00,,,0.00,,2013-06-16 13:34:00,
2013-06-16 09:43:00,68.0,66.0,29.86,SSW,212,2.0,8.0,92,0.00,,,0.00,,2013-06-16 13:43:00,
2013-06-16 09:54:00,68.0,66.0,29.86,West,281,3.0,9.0,92,0.00,,,0.00,,2013-06-16 13:54:00,
2013-06-16 10:02:00,69.0,66.0,29.87,WSW,247,1.0,10.0,91,0.00,,,0.00,,2013-06-16 14:02:00,
2013-06-16 10:12:00,69.0,66.0,29.87,WSW,247,1.0,10.0,91,0.00,,,0.00,,2013-06-16 14:12:00,
2013-06-16 10:22:00,70.0,67.0,29.86,WNW,286,3.0,12.0,89,0.00,,,0.00,,2013-06-16 14:22:00,
2013-06-16 10:34:00,71.0,67.0,29.86,WNW,303,2.0,8.0,86,0.00,,,0.00,,2013-06-16 14:34:00,
2013-06-16 10:43:00,71.0,67.0,29.86,WNW,303,2.0,8.0,86,0.00,,,0.00,,2013-06-16 14:43:00,
2013-06-16 10:53:00,72.0,67.0,29.86,WNW,302,4.0,9.0,84,0.00,,,0.00,,2013-06-16 14:53:00,
2013-06-16 11:02:00,73.0,67.0,29.86,SW,236,5.0,15.0,82,0.00,,,0.00,,2013-06-16 15:02:00,
2013-06-16 11:12:00,73.0,67.0,29.86,SW,236,5.0,15.0,82,0.00,,,0.00,,2013-06-16 15:12:00,
2013-06-16 11:23:00,74.0,67.0,29.86,West,281,4.0,10.0,80,0.00,,,0.00,,2013-06-16 15:23:00,
2013-06-16 11:34:00,74.0,67.0,29.86,West,281,4.0,10.0,80,0.00,,,0.00,,2013-06-16 15:34:00,
2013-06-16 11:43:00,75.0,68.0,29.86,WNW,288,3.0,12.0,80,0.00,,,0.00,,2013-06-16 15:43:00,
2013-06-16 11:53:00,76.0,68.0,29.86,WNW,300,7.0,12.0,77,0.00,,,0.00,,2013-06-16 15:53:00,
2013-06-16 12:02:00,76.0,68.0,29.86,WNW,300,7.0,12.0,77,0.00,,,0.00,,2013-06-16 16:02:00,
2013-06-16 12:12:00,76.0,68.0,29.86,West,281,7.0,12.0,76,0.00,,,0.00,,2013-06-16 16:12:00,
2013-06-16 12:23:00,77.0,67.0,29.86,West,279,6.0,13.0,72,0.00,,,0.00,,2013-06-16 16:23:00,
2013-06-16 12:33:00,77.0,67.0,29.86,West,279,6.0,13.0,72,0.00,,,0.00,,2013-06-16 16:33:00,
2013-06-16 12:43:00,77.0,68.0,29.86,West,263,3.0,10.0,74,0.00,,,0.00,,2013-06-16 16:43:00,
2013-06-16 12:53:00,77.0,68.0,29.87,West,279,4.0,10.0,73,0.00,,,0.00,,2013-06-16 16:53:00,
2013-06-16 13:02:00,77.0,68.0,29.87,West,279,4.0,10.0,73,0.00,,,0.00,,2013-06-16 17:02:00,
2013-06-16 13:12:00,77.0,68.0,29.87,WSW,243,3.0,9.0,73,0.00,,,0.00,,2013-06-16 17:12:00,
2013-06-16 13:22:00,78.0,69.0,29.86,SW,218,2.0,10.0,73,0.00,,,0.00,,2013-06-16 17:22:00,
2013-06-16 13:34:00,78.0,69.0,29.86,SW,218,2.0,10.0,73,0.00,,,0.00,,2013-06-16 17:34:00,
2013-06-16 13:43:00,78.0,68.0,29.86,West,265,4.0,10.0,72,0.00,,,0.00,,2013-06-16 17:43:00,
2013-06-16 13:53:00,78.0,68.0,29.86,WNW,287,4.0,11.0,72,0.00,,,0.00,,2013-06-16 17:53:00,
2013-06-16 14:02:00,78.0,68.0,29.86,WNW,287,4.0,11.0,72,0.00,,,0.00,,2013-06-16 18:02:00,
2013-06-16 14:12:00,79.0,68.0,29.86,WSW,249,4.0,10.0,70,0.00,,,0.00,,2013-06-16 18:12:00,
2013-06-16 14:22:00,79.0,70.0,29.86,SSW,210,4.0,13.0,73,0.00,,,0.00,,2013-06-16 18:22:00,
2013-06-16 14:33:00,79.0,70.0,29.86,SSW,210,4.0,13.0,73,0.00,,,0.00,,2013-06-16 18:33:00,
2013-06-16 14:43:00,78.0,68.0,29.86,WSW,248,3.0,11.0,72,0.00,,,0.00,,2013-06-16 18:43:00,
2013-06-16 14:52:00,78.0,68.0,29.86,WSW,237,3.0,12.0,72,0.00,,,0.00,,2013-06-16 18:52:00,
2013-06-16 15:01:00,78.0,68.0,29.86,WSW,237,3.0,12.0,72,0.00,,,0.00,,2013-06-16 19:01:00,
2013-06-16 15:11:00,79.0,68.0,29.86,SW,220,4.0,12.0,70,0.00,,,0.00,,2013-06-16 19:11:00,
2013-06-16 15:22:00,79.0,68.0,29.86,WNW,297,4.0,9.0,69,0.00,,,0.00,,2013-06-16 19:22:00,
2013-06-16 15:34:00,79.0,68.0,29.86,WNW,297,4.0,9.0,69,0.00,,,0.00,,2013-06-16 19:34:00,
2013-06-16 15:43:00,79.0,68.0,29.86,WSW,257,3.0,8.0,69,0.00,,,0.00,,2013-06-16 19:43:00,
2013-06-16 15:53:00,80.0,69.0,29.85,SW,236,5.0,10.0,69,0.00,,,0.00,,2013-06-16 19:53:00,
2013-06-16 16:02:00,80.0,69.0,29.85,SW,236,5.0,10.0,69,0.00,,,0.00,,2013-06-16 20:02:00,
2013-06-16 16:12:00,81.0,69.0,29.86,SW,220,5.0,13.0,67,0.00,,,0.00,,2013-06-16 20:12:00,
2013-06-16 16:22:00,80.0,68.0,29.85,WNW,288,6.0,11.0,68,0.00,,,0.00,,2013-06-16 20:22:00,
2013-06-16 16:33:00,80.0,68.0,29.85,WNW,288,6.0,11.0,68,0.00,,,0.00,,2013-06-16 20:33:00,
2013-06-16 16:42:00,80.0,68.0,29.85,WNW,288,4.0,9.0,67,0.00,,,0.00,,2013-06-16 20:42:00,
2013-06-16 16:53:00,79.0,67.0,29.85,WNW,292,3.0,12.0,67,0.00,,,0.00,,2013-06-16 20:53:00,
2013-06-16 17:02:00,79.0,67.0,29.85,WNW,292,3.0,12.0,67,0.00,,,0.00,,2013-06-16 21:02:00,
2013-06-16 17:11:00,79.0,68.0,29.86,West,276,3.0,12.0,70,0.00,,,0.00,,2013-06-16 21:11:00,
2013-06-16 17:22:00,78.0,70.0,29.86,WNW,286,5.0,12.0,77,0.00,,,0.00,,2013-06-16 21:22:00,
2013-06-16 17:33:00,78.0,70.0,29.86,WNW,286,5.0,12.0,77,0.00,,,0.00,,2013-06-16 21:33:00,
2013-06-16 18:12:00,73.0,70.0,29.85,WSW,248,1.0,6.0,89,0.00,,,0.00,,2013-06-16 22:12:00,
2013-06-16 18:22:00,74.0,70.0,29.85,WNW,290,2.0,6.0,86,0.00,,,0.00,,2013-06-16 22:22:00,
2013-06-16 18:32:00,74.0,70.0,29.85,WNW,290,2.0,6.0,86,0.00,,,0.00,,2013-06-16 22:32:00,
2013-06-16 18:42:00,76.0,70.0,29.85,WSW,253,2.0,10.0,83,0.00,,,0.00,,2013-06-16 22:42:00,
2013-06-16 18:52:00,76.0,70.0,29.84,WNW,286,1.0,8.0,83,0.00,,,0.00,,2013-06-16 22:52:00,
2013-06-16 19:02:00,76.0,70.0,29.84,WNW,286,1.0,8.0,83,0.00,,,0.00,,2013-06-16 23:02:00,
2013-06-16 19:11:00,76.0,69.0,29.85,SW,221,3.0,12.0,80,0.00,,,0.00,,2013-06-16 23:11:00,
2013-06-16 19:22:00,77.0,69.0,29.84,WSW,255,3.0,10.0,77,0.00,,,0.00,,2013-06-16 23:22:00,
2013-06-16 19:32:00,77.0,69.0,29.84,WSW,255,3.0,10.0,77,0.00,,,0.00,,2013-06-16 23:32:00,
2013-06-16 19:42:00,77.0,69.0,29.85,South,184,3.0,10.0,76,0.00,,,0.00,,2013-06-16 23:42:00,
2013-06-16 19:52:00,77.0,69.0,29.85,WSW,257,2.0,7.0,77,0.00,,,0.00,,2013-06-16 23:52:00,
2013-06-16 20:02:00,77.0,69.0,29.85,WSW,257,2.0,7.0,77,0.00,,,0.00,,2013-06-17 00:02:00,
2013-06-16 20:11:00,77.0,69.0,29.85,WNW,292,2.0,10.0,77,0.00,,,0.00,,2013-06-17 00:11:00,
2013-06-16 20:22:00,77.0,70.0,29.85,NW,309,2.0,7.0,78,0.00,,,0.00,,2013-06-17 00:22:00,
2013-06-16 20:32:00,77.0,70.0,29.85,NW,309,2.0,7.0,78,0.00,,,0.00,,2013-06-17 00:32:00,
2013-06-16 20:43:00,77.0,70.0,29.85,WNW,288,1.0,6.0,78,0.00,,,0.00,,2013-06-17 00:43:00,
2013-06-16 20:52:00,77.0,70.0,29.85,WNW,295,1.0,5.0,79,0.00,,,0.00,,2013-06-17 00:52:00,
2013-06-16 21:02:00,77.0,70.0,29.85,WNW,295,1.0,5.0,79,0.00,,,0.00,,2013-06-17 01:02:00,
2013-06-16 21:12:00,76.0,70.0,29.85,WNW,284,1.0,5.0,81,0.00,,,0.00,,2013-06-17 01:12:00,
2013-06-16 21:22:00,76.0,70.0,29.85,WNW,284,1.0,5.0,81,0.00,,,0.00,,2013-06-17 01:22:00,
2013-06-16 21:32:00,75.0,69.0,29.85,WNW,286,0.0,4.0,83,0.00,,,0.00,,2013-06-17 01:32:00,
2013-06-16 21:43:00,74.0,69.0,29.85,WNW,286,0.0,3.0,84,0.00,,,0.00,,2013-06-17 01:43:00,
2013-06-16 21:53:00,74.0,69.0,29.85,West,270,0.0,3.0,84,0.00,,,0.00,,2013-06-17 01:53:00,
2013-06-16 22:02:00,74.0,69.0,29.85,West,270,0.0,3.0,84,0.00,,,0.00,,2013-06-17 02:02:00,
2013-06-16 22:12:00,73.0,68.0,29.85,West,269,0.0,3.0,84,0.00,,,0.00,,2013-06-17 02:12:00,
2013-06-16 22:22:00,73.0,69.0,29.86,West,269,0.0,1.0,86,0.00,,,0.00,,2013-06-17 02:22:00,
2013-06-16 22:34:00,73.0,69.0,29.86,West,269,0.0,1.0,86,0.00,,,0.00,,2013-06-17 02:34:00,
2013-06-16 22:43:00,72.0,68.0,29.86,West,269,0.0,2.0,87,0.00,,,0.00,,2013-06-17 02:43:00,
2013-06-16 22:53:00,72.0,68.0,29.87,West,269,0.0,1.0,88,0.00,,,0.00,,2013-06-17 02:53:00,
2013-06-16 23:02:00,72.0,68.0,29.87,West,269,0.0,1.0,88,0.00,,,0.00,,2013-06-17 03:02:00,
2013-06-16 23:12:00,71.0,67.0,29.87,West,269,0.0,2.0,88,0.00,,,0.00,,2013-06-17 03:12:00,
2013-06-16 23:22:00,71.0,67.0,29.87,West,269,0.0,2.0,88,0.00,,,0.00,,2013-06-17 03:22:00,
2013-06-16 23:33:00,71.0,67.0,29.87,West,269,0.0,2.0,88,0.00,,,0.00,,2013-06-17 03:33:00,
2013-06-16 23:44:00,71.0,67.0,29.87,North,350,0.0,1.0,88,0.00,,,0.00,,2013-06-17 03:44:00,
2013-06-16 23:53:00,71.0,67.0,29.87,SW,236,0.0,3.0,88,0.00,,,0.00,,2013-06-17 03:53:00,